KJ7IVE-13 Weather Reports


Display with metric or nautical units.
time (UTC)temp
F
wind
direction
speed
MPH
gust
MPH
rain 1hr
in
rain 24hr
in
rain mn
in
humidity
%
barometer
mb
20260502170442 67 168 5.0 7.0 0.00 0.00 0.00 10 1022.4
20260502163925 64 181 0.0 1.0 0.00 0.00 0.00 10 1022.4
20260502163421 64 248 3.0 3.0 0.00 0.00 0.00 10 1022.4
20260502162919 64 196 1.0 2.0 0.00 0.00 0.00 10 1022.3
20260502162416 64 213 2.0 2.0 0.00 0.00 0.00 10 1022.5
20260502161913 66 190 1.0 2.0 0.00 0.00 0.00 10 1022.4
20260502161409 64 206 1.0 1.0 0.00 0.00 0.00 10 1022.2
20260502160907 63 164 0.0 0.0 0.00 0.00 0.00 10 1022.2
20260502160405 64 95 3.0 3.0 0.00 0.00 0.00 10 1022.0
20260502152334 60 100 4.0 5.0 0.00 0.00 0.00 10 1022.4
20260502151831 59 52 4.0 6.0 0.00 0.00 0.00 10 1022.5
20260502151328 59 104 5.0 6.0 0.00 0.00 0.00 10 1022.5
20260502150825 58 132 1.0 2.0 0.00 0.00 0.00 10 1022.4
20260502150322 57 135 5.0 6.0 0.00 0.00 0.00 10 1022.5
20260502130710 48 151 2.0 2.0 0.00 0.00 0.00 10 1022.0
20260502130208 48 162 1.0 2.0 0.00 0.00 0.00 10 1022.0
20260502123654 49 176 1.0 1.0 0.00 0.00 0.00 10 1021.8
20260502123150 49 155 1.0 2.0 0.00 0.00 0.00 10 1022.0
20260502122647 49 144 2.0 2.0 0.00 0.00 0.00 10 1022.0
20260502122143 49 125 5.0 6.0 0.00 0.00 0.00 10 1021.8
20260502121642 49 119 5.0 6.0 0.00 0.00 0.00 10 1021.7
20260502121139 49 122 4.0 6.0 0.00 0.00 0.00 10 1021.7
20260502120635 49 123 4.0 5.0 0.00 0.00 0.00 10 1021.7
20260502120132 49 133 3.0 3.0 0.00 0.00 0.00 10 1021.6
20260502115630 49 105 5.0 6.0 0.00 0.00 0.00 10 1021.7
20260502115125 48 141 3.0 5.0 0.00 0.00 0.00 10 1021.9
20260502114622 48 126 4.0 5.0 0.00 0.00 0.00 10 1021.7
20260502114119 48 131 2.0 2.0 0.00 0.00 0.00 10 1021.7
20260502113617 48 114 3.0 3.0 0.00 0.00 0.00 10 1021.7
20260502113115 48 121 3.0 3.0 0.00 0.00 0.00 10 1021.7
20260502112612 48 130 2.0 2.0 0.00 0.00 0.00 10 1021.8
20260502112110 48 106 4.0 5.0 0.00 0.00 0.00 10 1021.7
20260502111607 47 98 4.0 5.0 0.00 0.00 0.00 10 1021.8
20260502111104 47 107 2.0 2.0 0.00 0.00 0.00 10 1021.7
20260502110602 46 105 2.0 3.0 0.00 0.00 0.00 10 1021.8
20260502110059 45 143 1.0 2.0 0.00 0.00 0.00 10 1022.2
20260502105556 45 120 1.0 2.0 0.00 0.00 0.00 10 1021.6
20260502105054 45 141 1.0 1.0 0.00 0.00 0.00 10 1021.7
20260502104551 45 185 1.0 1.0 0.00 0.00 0.00 10 1021.9
20260502104048 45 189 0.0 0.0 0.00 0.00 0.00 10 1022.0
20260502103546 44 190 0.0 0.0 0.00 0.00 0.00 10 1021.9
20260502103044 45 190 1.0 1.0 0.00 0.00 0.00 10 1021.9
20260502102540 46 178 0.0 0.0 0.00 0.00 0.00 10 1021.8
20260502102037 46 125 1.0 2.0 0.00 0.00 0.00 10 1021.8
20260502101535 45 164 1.0 2.0 0.00 0.00 0.00 10 1022.0
20260502101033 45 193 0.0 0.0 0.00 0.00 0.00 10 1021.9
20260502100531 45 159 0.0 0.0 0.00 0.00 0.00 10 1021.9
20260502091506 48 196 1.0 1.0 0.00 0.00 0.00 10 1021.6
20260502091003 49 183 0.0 0.0 0.00 0.00 0.00 10 1021.7
20260502090500 49 170 2.0 2.0 0.00 0.00 0.00 10 1021.6
20260502071354 51 155 0.0 0.0 0.00 0.00 0.00 10 1021.5
20260502070853 51 105 1.0 1.0 0.00 0.00 0.00 10 1021.4
20260502070350 52 119 1.0 2.0 0.00 0.00 0.00 10 1021.5
20260502065849 52 131 4.0 5.0 0.00 0.00 0.00 10 1021.4
20260502065347 51 127 3.0 5.0 0.00 0.00 0.00 10 1021.5
20260502064844 50 156 2.0 2.0 0.00 0.00 0.00 10 1021.4
20260502064342 50 131 3.0 5.0 0.00 0.00 0.00 10 1021.4
20260502063839 50 133 3.0 3.0 0.00 0.00 0.00 10 1021.4
20260502063337 50 172 4.0 5.0 0.00 0.00 0.00 10 1021.6
20260502062834 51 176 3.0 3.0 0.00 0.00 0.00 10 1021.4
20260502062331 51 189 1.0 2.0 0.00 0.00 0.00 10 1021.6
20260502061830 51 199 0.0 0.0 0.00 0.00 0.00 10 1021.6
20260502061327 51 207 1.0 1.0 0.00 0.00 0.00 10 1021.4
20260502060823 51 219 1.0 1.0 0.00 0.00 0.00 10 1021.2
20260502060318 52 270 6.0 8.0 0.00 0.00 0.00 10 1021.6
20260502055816 52 163 3.0 3.0 0.00 0.00 0.00 10 1021.4
20260502055314 52 154 3.0 3.0 0.00 0.00 0.00 10 1021.2
20260502054813 53 163 3.0 3.0 0.00 0.00 0.00 10 1021.5
20260502054310 52 134 6.0 7.0 0.00 0.00 0.00 10 1021.2
20260502053808 53 125 5.0 6.0 0.00 0.00 0.00 10 1021.2
20260502053304 53 142 3.0 3.0 0.00 0.00 0.00 10 1021.5
20260502052802 53 161 3.0 3.0 0.00 0.00 0.00 10 1021.5
20260502052300 53 149 4.0 7.0 0.00 0.00 0.00 10 1021.1
20260502051758 54 149 5.0 6.0 0.00 0.00 0.00 10 1021.1
20260502051256 54 158 5.0 6.0 0.00 0.00 0.00 10 1021.2
20260502050752 54 169 3.0 3.0 0.00 0.00 0.00 10 1021.5
20260502050248 54 154 3.0 3.0 0.00 0.00 0.00 10 1021.1
20260502045746 54 170 2.0 2.0 0.00 0.00 0.00 10 1021.4
20260502045242 54 168 2.0 3.0 0.00 0.00 0.00 10 1021.2
20260502044739 54 164 2.0 3.0 0.00 0.00 0.00 10 1021.4
20260502044235 54 145 3.0 5.0 0.00 0.00 0.00 10 1021.4
20260502043733 54 129 5.0 8.0 0.00 0.00 0.00 10 1021.2
20260502043230 54 151 2.0 2.0 0.00 0.00 0.00 10 1021.4
20260502042729 54 146 4.0 5.0 0.00 0.00 0.00 10 1021.1
20260502042227 55 145 6.0 7.0 0.00 0.00 0.00 10 1021.0
20260502041725 55 146 4.0 6.0 0.00 0.00 0.00 10 1021.1
20260502041222 55 145 4.0 5.0 0.00 0.00 0.00 10 1020.7
20260502040719 55 168 3.0 3.0 0.00 0.00 0.00 10 1021.0
20260502040216 55 163 3.0 3.0 0.00 0.00 0.00 10 1021.1
20260502035712 55 156 2.0 3.0 0.00 0.00 0.00 10 1020.7
20260502035209 56 161 5.0 6.0 0.00 0.00 0.00 10 1020.9
20260502034706 56 158 6.0 7.0 0.00 0.00 0.00 10 1020.6
20260502034204 56 168 4.0 5.0 0.00 0.00 0.00 10 1020.8
20260502033702 57 173 3.0 3.0 0.00 0.00 0.00 10 1020.6
20260502033200 57 179 2.0 2.0 0.00 0.00 0.00 10 1020.4
20260502032656 57 175 1.0 2.0 0.00 0.00 0.00 10 1020.4
20260502032152 57 174 2.0 2.0 0.00 0.00 0.00 10 1020.7
20260502031650 57 174 1.0 1.0 0.00 0.00 0.00 10 1020.1
20260502031148 57 173 2.0 5.0 0.00 0.00 0.00 10 1020.3
20260502030646 57 189 2.0 3.0 0.00 0.00 0.00 10 1020.1
20260502030144 58 201 2.0 3.0 0.00 0.00 0.00 10 1020.2
20260502025641 57 202 3.0 5.0 0.00 0.00 0.00 10 1020.1
20260502025139 57 218 3.0 3.0 0.00 0.00 0.00 10 1020.0
20260502024636 57 212 3.0 3.0 0.00 0.00 0.00 10 1019.8
20260502024134 58 221 5.0 6.0 0.00 0.00 0.00 10 1020.1
20260502023632 58 226 3.0 3.0 0.00 0.00 0.00 10 1019.9
20260502023129 58 238 5.0 6.0 0.00 0.00 0.00 10 1019.9
20260502022626 58 228 5.0 7.0 0.00 0.00 0.00 10 1019.9
20260502022123 59 239 3.0 5.0 0.00 0.00 0.00 10 1019.9
20260502021620 59 242 4.0 5.0 0.00 0.00 0.00 10 1019.9
20260502021117 59 245 4.0 5.0 0.00 0.00 0.00 10 1019.7
20260502020615 60 251 3.0 3.0 0.00 0.00 0.00 10 1019.8
20260502020111 60 240 5.0 6.0 0.00 0.00 0.00 10 1019.5
20260502015609 61 270 6.0 7.0 0.00 0.00 0.00 10 1019.7
20260502015106 61 254 5.0 5.0 0.00 0.00 0.00 10 1019.8
20260502014603 61 238 6.0 7.0 0.00 0.00 0.00 10 1019.8
20260502014100 62 239 5.0 6.0 0.00 0.00 0.00 10 1019.8
20260502013555 62 243 6.0 8.0 0.00 0.00 0.00 10 1019.7
20260502013051 62 267 8.0 10.0 0.00 0.00 0.00 10 1019.7
20260502012549 62 245 7.0 9.0 0.00 0.00 0.00 10 1019.5
20260502012047 63 253 9.0 10.0 0.00 0.00 0.00 10 1019.5
20260502011543 64 244 8.0 9.0 0.00 0.00 0.00 10 1019.5
20260502011039 65 251 3.0 3.0 0.00 0.00 0.00 10 1019.4
20260502010537 65 261 9.0 11.0 0.00 0.00 0.00 10 1019.3
20260502010033 65 275 6.0 7.0 0.00 0.00 0.00 10 1019.7
20260502005531 65 257 7.0 9.0 0.00 0.00 0.00 10 1019.7
20260502005029 66 244 3.0 3.0 0.00 0.00 0.00 10 1019.5
20260502004524 66 270 5.0 6.0 0.00 0.00 0.00 10 1019.8
20260502004021 67 307 6.0 9.0 0.00 0.00 0.00 10 1019.5
20260502003519 66 301 4.0 6.0 0.00 0.00 0.00 10 1019.7
20260502003015 66 323 9.0 10.0 0.00 0.00 0.00 10 1019.7
20260502002512 66 310 13.0 17.0 0.00 0.00 0.00 10 1019.8
20260502002009 66 276 5.0 7.0 0.00 0.00 0.00 10 1019.8
20260502001507 66 254 11.0 15.0 0.00 0.00 0.00 10 1019.8
20260502001004 66 284 12.0 21.0 0.00 0.00 0.00 10 1019.7
20260502000503 66 306 14.0 20.0 0.00 0.00 0.00 10 1020.1
20260501235958 66 264 10.0 14.0 0.00 0.00 0.00 10 1019.7
20260501235454 66 303 10.0 10.0 0.00 0.00 0.00 10 1019.5
20260501234949 66 304 9.0 10.0 0.00 0.00 0.00 10 1019.7
20260501234446 66 326 12.0 14.0 0.00 0.00 0.00 10 1020.0
20260501233945 66 340 6.0 7.0 0.00 0.00 0.00 10 1019.9
20260501233443 66 275 9.0 10.0 0.00 0.00 0.00 10 1019.9
20260501232938 66 284 8.0 10.0 0.00 0.00 0.00 10 1019.9
20260501232435 66 269 6.0 7.0 0.00 0.00 0.00 10 1019.9
20260501231932 66 326 11.0 14.0 0.00 0.00 0.00 10 1019.8
20260501231431 65 318 7.0 8.0 0.00 0.00 0.00 10 1019.9
20260501230928 66 266 3.0 5.0 0.00 0.00 0.00 10 1020.2
20260501230427 65 317 8.0 10.0 0.00 0.00 0.00 10 1020.1
20260501225924 66 345 7.0 9.0 0.00 0.00 0.00 10 1020.0
20260501225422 66 342 7.0 9.0 0.00 0.00 0.00 10 1020.3
20260501224917 66 273 7.0 9.0 0.00 0.00 0.00 10 1020.3
20260501224415 65 310 8.0 11.0 0.00 0.00 0.00 10 1020.3
20260501223912 65 267 10.0 13.0 0.00 0.00 0.00 10 1020.1
20260501223408 65 296 9.0 10.0 0.00 0.00 0.00 10 1020.3
20260501222904 65 285 6.0 9.0 0.00 0.00 0.00 10 1020.3
20260501222401 65 318 6.0 7.0 0.00 0.00 0.00 10 1020.6
20260501221857 65 315 7.0 9.0 0.00 0.00 0.00 10 1020.6
20260501221355 65 320 10.0 11.0 0.00 0.00 0.00 10 1020.8
20260501220853 64 297 13.0 14.0 0.00 0.00 0.00 10 1020.8
20260501220350 65 278 10.0 13.0 0.00 0.00 0.00 10 1020.9
20260501215846 64 255 9.0 10.0 0.00 0.00 0.00 10 1020.6
20260501215343 64 333 10.0 13.0 0.00 0.00 0.00 10 1020.6
20260501214838 65 258 7.0 9.0 0.00 0.00 0.00 10 1021.0
20260501214334 64 290 7.0 11.0 0.00 0.00 0.00 10 1020.7
20260501213830 65 316 7.0 8.0 0.00 0.00 0.00 10 1020.9
20260501213327 64 268 8.0 11.0 0.00 0.00 0.00 10 1020.8
20260501212822 64 244 14.0 17.0 0.00 0.00 0.00 10 1020.8
20260501212319 64 284 9.0 13.0 0.00 0.00 0.00 10 1021.1
20260501211816 64 283 12.0 15.0 0.00 0.00 0.00 10 1021.1
20260501211314 63 255 9.0 14.0 0.00 0.00 0.00 10 1021.0
20260501210810 64 303 6.0 7.0 0.00 0.00 0.00 10 1021.0
20260501210307 64 274 9.0 10.0 0.00 0.00 0.00 10 1021.0
20260501205803 64 289 9.0 11.0 0.00 0.00 0.00 10 1021.4
20260501205300 64 228 10.0 14.0 0.00 0.00 0.00 10 1021.1
20260501204757 64 293 7.0 10.0 0.00 0.00 0.00 10 1021.1
20260501204254 65 307 7.0 10.0 0.00 0.00 0.00 10 1021.1
20260501203750 64 303 11.0 15.0 0.00 0.00 0.00 10 1021.0
20260501203248 64 335 12.0 14.0 0.00 0.00 0.00 10 1021.0
20260501202745 64 274 7.0 7.0 0.00 0.00 0.00 10 1021.1
20260501202241 64 312 11.0 13.0 0.00 0.00 0.00 10 1021.0
20260501201738 64 307 7.0 9.0 0.00 0.00 0.00 10 1021.1
20260501201235 64 326 10.0 11.0 0.00 0.00 0.00 10 1021.0
20260501200732 64 289 3.0 3.0 0.00 0.00 0.00 10 1021.4
20260501200229 64 293 6.0 7.0 0.00 0.00 0.00 10 1021.1
20260501195726 64 147 0.0 1.0 0.00 0.00 0.00 10 1021.0
20260501195222 64 262 5.0 6.0 0.00 0.00 0.00 10 1021.2
20260501194719 65 272 5.0 7.0 0.00 0.00 0.00 10 1021.5
20260501194214 64 220 3.0 5.0 0.00 0.00 0.00 10 1021.5
20260501193711 63 186 3.0 3.0 0.00 0.00 0.00 10 1021.4
20260501193210 64 15 6.0 9.0 0.00 0.00 0.00 10 1021.5
20260501192707 64 331 9.0 10.0 0.00 0.00 0.00 10 1021.4
20260501192204 64 270 4.0 6.0 0.00 0.00 0.00 10 1021.4
20260501191701 63 187 2.0 2.0 0.00 0.00 0.00 10 1021.5
20260501191158 62 311 3.0 5.0 0.00 0.00 0.00 10 1021.7
20260501190654 63 311 8.0 10.0 0.00 0.00 0.00 10 1021.6
20260501190150 63 335 5.0 6.0 0.00 0.00 0.00 10 1021.7
20260501185646 62 15 6.0 8.0 0.00 0.00 0.00 10 1021.8
20260501185142 63 340 6.0 8.0 0.00 0.00 0.00 10 1021.7
20260501184638 63 115 5.0 6.0 0.00 0.00 0.00 10 1021.8
20260501184133 63 51 3.0 3.0 0.00 0.00 0.00 10 1021.9
20260501183630 62 300 5.0 6.0 0.00 0.00 0.00 10 1021.8
20260501183126 63 299 4.0 5.0 0.00 0.00 0.00 10 1021.8
20260501182623 62 27 4.0 5.0 0.00 0.00 0.00 10 1022.2
20260501182120 62 14 3.0 3.0 0.00 0.00 0.00 10 1021.8
20260501181617 63 62 3.0 5.0 0.00 0.00 0.00 10 1022.4
20260501181114 62 222 3.0 5.0 0.00 0.00 0.00 10 1022.0
20260501180612 62 217 1.0 1.0 0.00 0.00 0.00 10 1022.3